Showing default

USA 11, 16116

Orbit data source: Space-Track

USA 11, 16116 is an American payload satellite in GEO that was launched on Thu, 03 Oct 1985 UTC via an SPACE SHUTTLE launch vehicle from the Air Force Eastern Test Range (AFETR). Payload-class satellites include a variety of spacecraft equipped with specific instruments for various scientific and technological missions. These include communications satellites like Starlink; space stations such as the ISS; scientific satellites like the Hubble; Earth observation satellites from companies like Planet Labs, Umbra, and HawkEye 360; GPS; miniature CubeSats for education and research; and military/defense satellites.

Not visible in the next 10 days
Identifier
16116, 1985-092B
Orbit
GEO
Country
Flag of USUS
Related business
Manufacturer
GE/MSVD
Mission
Spacecraft
Bus & Motor
DSCS III, AOCS
Mass
~1,170 kg wet, 893 kg dry
Launch date (UTC)
1985-10-03 (41 years ago)
Launch vehicle
SPACE SHUTTLE
Launch site
Air Force Eastern Test Range (AFETR)
Object type
Payload
Rocket body
Debris
Shape & HBR
BOX + 2 PAN, 1.1 m
Radar Cross Section
Medium (>0.1 m² and <1 m²)

Expand to show TLE details & history
Last TLE update: 2 days ago

TLE from 2 days ago
0 USA 11
1 16116U 85092B   26261.45812608 -.00000203  00000-0  00000+0 0  9995
2 16116  14.3295 346.7403 0003591 223.3495 123.6516  0.99330310 26846
Epoch: 2026-09-18T10:59Z
TLE epoch observation values (Epoch: 2026-09-18T10:59:42.093Z)
Latitude
-3.19142°
Longitude
171.84432°
Altitude
36,061.15 km
Speed
3.064 km/s
True Right ascension
22h 16m 36s
True Declination
-3° 11' 18"
Sunlit
Object was in daylight at epoch
Visualization orbit readout
Latitude
Unknown
Longitude
Unknown
Altitude
Unknown
Speed
Unknown
Apparent Right ascension
Unknown
Apparent Declination
Unknown
Sunlit
N/A
Visualization observer readout
Local Sidereal Time
19:04:26
Azimuth
Unknown
Elevation
Unknown
Doppler factor
Unknown
Orbital elements
Apogee altitude
36,068.813 km
Perigee altitude
36,038.338 km
Semi-major axis
42,431.713 km
Eccentricity
0.00036
Inclination
14.3295°
RAAN
346.7403°
Arg. of periapsis
223.3495°
True anomaly
123.68585°
Mean anomaly
123.6516°
Eccentric anomaly
123.66872°
Mean motion
0.24832 °/min
Orbital period
1,449.76 mins
BSTAR
0
Loading maneuver chart data...
Computing Atmospheric mass density...
Loading historical data...
Loading historical data...
Loading historical data...
Loading historical data...
Loading historical data...
Loading historical data...
Loading historical data...
Other satellites on launch #92 in the year 1985 (1985-10-03 UTC)

Documentation

Showing up to 5 results
|